Details From ESSV - Visby
To EVLA - LIEPAJA INTL
Flight Number -
Tags generated
Created
Modified
Stats Distance 113 nm / 210 km
Max Altitude 9,500 ft / 2,896 m
Waypoints 4
Social Downloads 1
Likes 0
Share VATSIM

Download

Looking for another format? Having issues loading an existing format? Contact us
Advertisement - Login to hide

Notes

Basic altitude profile: - Ascent Rate: 2500ft/min - Ascent Speed: 250kts - Cruise Altitude: 10000ft - Cruise Speed: 420kts - Descent Rate: 1500ft/min - Descent Speed: 250kts Options: - Use NATs: yes - Use PACOTS: yes - Use low airways: yes - Use high airways: yes

Route

ESSV DESON L747 LIE EVLA

ID Type Via Altitude Latitude Longitude Leg Dist Tot Dist Heading (true) Name
O ESSV APT - 0 ft / 0 m 57.65641˚ 18.34245˚ - 0 nm - Visby
DESON FIX - 6,800 ft / 2,073 m 56.89472˚ 20.42028˚ 81 nm 81 nm 123° / 125° -
LIE VOR L747 (AWY-LO) 9,500 ft / 2,896 m 56.51856˚ 21.09197˚ 31 nm 113 nm 135° / 136° -
O EVLA APT - 0 ft / 0 m 56.51752˚ 21.09706˚ 0 nm 113 nm 110° / 110° LIEPAJA INTL

Altitude Profile

Advertisement - Login to hide

ESSV

Details ICAO ESSV (VBY)
Name Visby
Region Sweden
Timezone Europe/Stockholm (UTC+2.0)
Stats Elevation 164 ft / 50 m (AMSL)
Location 57.656405° 18.342448°
Runways 2
Magnetic Variation 5.980° E

METAR

ESSV 261520Z 12006KT CAVOK 20/12 Q1026

Decode

TAF

Not found

Departure Runways

ID Width Length Bearing (true) Bearing (mag) Surface Threshold Offset Overrun Length
03 148 ft / 45 m 6,552 ft / 1,997 m 20.95° 14.97° Asphalt 0 ft / 0 m 0 ft / 0 m
10 131 ft / 40 m 3,599 ft / 1,097 m 101.41° 95.43° Grass 0 ft / 0 m 0 ft / 0 m
21 148 ft / 45 m 6,552 ft / 1,997 m 200.96° 194.98° Asphalt 0 ft / 0 m 0 ft / 0 m
28 131 ft / 40 m 3,599 ft / 1,097 m 281.43° 275.45° Grass 0 ft / 0 m 0 ft / 0 m

EVLA

Details ICAO EVLA (LPX)
Name LIEPAJA INTL
Region Latvia
Timezone Europe/Riga (UTC+3.0)
Stats Elevation 16 ft / 5 m (AMSL)
Location 56.517524° 21.097060°
Runways 1
Magnetic Variation 6.700° E

METAR

EVLA 261520Z 28006KT 240V310 9999 SCT063CB 18/13 Q1025

Decode

TAF

TAF EVLA 261402Z 2615/2715 26007KT 9999 SCT040 TEMPO 2615/2618 BKN030CB BECMG 2617/2619 05007KT TEMPO 2623/2703 0600 FG BKN002

Decode

Destination Runways

ID Width Length Bearing (true) Bearing (mag) Surface Threshold Offset Overrun Length
07 131 ft / 40 m 6,548 ft / 1,996 m 70.20° 63.50° Asphalt 0 ft / 0 m 984 ft / 300 m
25 131 ft / 40 m 6,548 ft / 1,996 m 250.23° 243.53° Asphalt 0 ft / 0 m 197 ft / 60 m